Weather History for Resolute, NU

Change the Weather History Date:

Friday, October 11, 2013

  Actual Average Record
Temperature  
Mean Temperature 11 °F -  
Max Temperature 21 °F 13 °F 28 °F (2007)
Min Temperature 1 °F 4 °F -5 °F (1996)
Degree Days  
Heating Degree Days 54    
Moisture  
Dew Point 13 °F    
Average Humidity 89    
Maximum Humidity 93    
Minimum Humidity 81    
Precipitation  
Precipitation 0.00 in - - ()
Sea Level Pressure  
Sea Level Pressure 29.90 in    
Wind  
Wind Speed 25 mph ()    
Max Wind Speed 47 mph    
Max Gust Speed 48 mph    
Visibility 2.0 miles    
Events Snow    
Averages and records for this station are not official NWS values.
T = Trace of Precipitation, MM = Missing Value Source: Averaged Metar Reports

Daily Weather History Graph

Daily Weather History Graph

Search for Another Location

Airport:

Trip Planner

Search our weather history database for the weather conditions in past years. The results will help you decide how hot, cold, wet, or windy it might be!

Date:

Astronomy

Oct. 11, 2013 Rise Set
Actual Time 8:42 AM CDT 5:27 PM CDT
Civil Twilight 7:20 AM CDT 6:49 PM CDT
Nautical Twilight 5:48 AM CDT 8:21 PM CDT
Astronomical Twilight 4:01 AM CDT 10:05 PM CDT
Moon No Moon Rise No Moon Set
Length of Visible Light 11h 28m
Length of Day
8h 45m
Waxing Crescent, 47% of the Moon is Illuminated
Oct 11
Waxing Crescent
Oct 11
First Quarter
Oct 18
Full
Oct 26
Last Quarter
Nov 3
New

Hourly Weather History & Observations

Time (CDT) Temp. Windchill Dew Point Humidity Pressure Visibility Wind Dir Wind Speed Gust Speed Precip Events Conditions
12:00 AM 10.4 °F -8.2 °F 6.8 °F 85% 30.02 in 15.0 mi ESE 19.6 mph - N/A Snow Low Drifting Snow
1:00 AM 8.6 °F -11.0 °F 6.8 °F 92% 30.03 in 15.0 mi East 20.7 mph - N/A Snow Low Drifting Snow
2:00 AM 10.4 °F -8.2 °F 6.8 °F 85% 30.02 in 10.0 mi ESE 19.6 mph - N/A Snow Low Drifting Snow
2:50 AM - - - N/A% - 5.0 mi ESE 24.2 mph - N/A   Unknown
3:00 AM 10.4 °F -7.7 °F 8.6 °F 92% 30.00 in 4.0 mi SE 18.4 mph 25.3 mph N/A Snow Light Snow
4:00 AM 10.4 °F -9.9 °F 8.6 °F 92% 29.99 in 4.0 mi East 24.2 mph 29.9 mph N/A Snow Light Snow
5:00 AM 10.4 °F -7.7 °F 6.8 °F 85% 29.98 in 3.0 mi ESE 18.4 mph 26.5 mph N/A Snow Light Snow
5:32 AM - - - N/A% - 0.5 mi ESE 26.5 mph 32.2 mph N/A   Unknown
6:00 AM 10.4 °F -10.3 °F 8.6 °F 92% 29.97 in 0.5 mi ESE 25.3 mph 31.1 mph N/A Snow Light Snow
7:00 AM 12 °F - 9 °F 81% 29.95 in 1 mi ESE 35.7 mph - - Snow Light Snow
7:00 AM 12.2 °F -8.6 °F 8.6 °F 85% 29.95 in 1.5 mi ESE 27.6 mph 35.7 mph N/A Snow Light Snow
7:51 AM - - - N/A% - 0.5 mi East 27.6 mph 35.7 mph N/A   Unknown
8:00 AM 12.2 °F -7.9 °F 8.6 °F 85% 29.93 in 0.5 mi ESE 25.3 mph 31.1 mph N/A Snow Light Snow
8:40 AM - - - N/A% - 2.0 mi East 31.1 mph - N/A   Unknown
9:00 AM 12.2 °F -9.3 °F 8.6 °F 85% 29.92 in 1.8 mi East 29.9 mph 36.8 mph N/A Snow Blowing Snow
10:00 AM 14.0 °F -5.1 °F 10.4 °F 86% 29.92 in 2.5 mi East 24.2 mph 35.7 mph N/A Snow Blowing Snow
10:48 AM - - - N/A% - 0.5 mi East 27.6 mph 36.8 mph N/A   Unknown
11:00 AM 15.8 °F -4.7 °F 12.2 °F 86% 29.92 in 0.5 mi East 31.1 mph 38.0 mph N/A Snow Blowing Snow
11:48 AM - - - N/A% - 0.2 mi East 29.9 mph 41.4 mph N/A   Unknown
12:00 PM 15.8 °F -4.7 °F 14.0 °F 93% 29.89 in 0.2 mi East 31.1 mph 40.3 mph N/A Snow Heavy Snow
1:00 PM 16 °F - 14 °F 87% 29.88 in 0 mi East 39.1 mph - - Snow Light Snow
1:00 PM 15.8 °F -4.4 °F 14.0 °F 93% 29.88 in 0.2 mi East 29.9 mph 39.1 mph N/A Snow Heavy Snow
2:00 PM 17.6 °F -1.6 °F 14.0 °F 86% 29.87 in 0.2 mi East 28.8 mph 34.5 mph N/A Snow Heavy Snow
3:00 PM 17.6 °F -2.5 °F 15.8 °F 93% 29.86 in 0.2 mi East 32.2 mph 40.3 mph N/A Snow Heavy Snow
4:00 PM 17.6 °F -3.1 °F 15.8 °F 93% 29.86 in 0.2 mi East 34.5 mph 40.3 mph N/A Snow Heavy Snow
5:00 PM 19.4 °F -2.0 °F 15.8 °F 86% 29.85 in 0.2 mi East 41.4 mph 48.3 mph N/A Snow Heavy Snow
6:00 PM 19.4 °F -1.8 °F 17.6 °F 93% 29.83 in 0.2 mi East 40.3 mph 46.0 mph N/A Snow Heavy Snow
7:00 PM 19 °F - 17 °F 91% 29.81 in 0 mi East 47.2 mph - - Snow Light Snow
7:00 PM 19.4 °F -0.3 °F 17.6 °F 93% 29.81 in 0.2 mi East 33.4 mph 47.2 mph N/A Snow Heavy Snow
7:28 PM - - - N/A% - 0.1 mi East 34.5 mph 46.0 mph N/A   Unknown
8:00 PM 19.4 °F -0.6 °F 17.6 °F 93% 29.81 in 0.1 mi East 34.5 mph 42.6 mph N/A Snow Heavy Snow
9:00 PM 21.2 °F 0.7 °F 17.6 °F 86% 29.80 in 0.1 mi East 40.3 mph 48.3 mph N/A Snow Heavy Snow
10:00 PM 21.2 °F 2.4 °F 19.4 °F 93% 29.78 in 0.1 mi East 32.2 mph 40.3 mph N/A Snow Heavy Snow
10:49 PM - - - N/A% - 0.1 mi East 36.8 mph 48.3 mph N/A   Unknown
11:00 PM 21.2 °F 1.4 °F 19.4 °F 93% 29.78 in 0.1 mi East 36.8 mph 42.6 mph N/A Snow Heavy Blowing Snow
11:18 PM - - - N/A% - 0.2 mi East 36.8 mph 42.6 mph N/A   Unknown